Weather in Yelenovskoye

Russia / Republic of Adygea     45°05′44″N   39°43′24″E
temp.,
°C
wind,
m/s
gust,
m/s
humid.,
%
clouds,
%
prec.,
mm/h
press.,
hPa
HPBL,
m
9 may, sun
sun900:00+16wsw4682100 0.3 1009110
03:00+13wnw4891100 0.7 1010269
06:00+14wsw61394100 2.2 1010562
09:00+9nw81393100 2.6 1014845
12:00+9wnw5994100 3.4 1017857
15:00+9wnw5790100 7.7 1020909
18:00+10wnw378098 0.7 1022857
21:00+7wsw33855 0.8 102343
10 may, mon
mon1000:00+6sw489214 0.0 1024136
03:00+7sw3586100 0.1 102496
06:00+6wsw36908 0.1 1024151
09:00+11wnw4667100 0.8 10231102
12:00+12wnw6759100 0.6 10221698
15:00+11wnw6872100 1.6 10221323
18:00+9w5984100 0.7 1022896
21:00+8wsw61087100 0.9 1021427
11 may, tue
tue1100:00+7sw81392100 1.0 10181095
03:00+7sw91694100 5.4 10161174
06:00+8ssw111794100 9.1 10151276
09:00+8ssw122093100 21.8 10151415
12:00+9sw112090100 5.2 10161441
15:00+11sw10178098 6.7 10171508
18:00+12sw61270100 0.1 1018705
21:00+10sw3673100 0.1 1019125
12 may, wed
wed1200:00+9e379183 0.1 1018209
03:00+8ene4994100 0.1 1017376
06:00+7e3796100 0.0 1017219
09:00+13ese227945 0.0 1016430
12:00+17e336717 0.0 10161030
15:00+20e346217 0.0 10151231
18:00+19ene35770 0.0 1014212
21:00+13e47900 0.0 1014107
13 may, thu
thu1300:00+11ese35921 0.0 101378
03:00+10ese22920 0.0 101325
06:00+11ese349098 0.0 101374
09:00+18e4670100 0.0 1013274
12:00+23e6963100 0.0 1012592
15:00+25e6107096 0.0 1011799
18:00+22e6137814 0.0 1011407
21:00+17e412905 0.0 1012214